Flag for Austria Weather past 2 weeks in Hollabrunn, Lower Austria, Austria

Now
51 °F

Passing clouds.


Feels Like: 51 °F
Forecast: 51 / 68 °F
Wind: 2 mph from Northeast

Location: Retz

Current Time: Apr 25, 2015 at 8:52:24 AM

Latest Report: Apr 25, 2015 at 8:00 AM


Visibility: 7 mi

Pressure: 29.95 "Hg

Humidity: 62%

Dew point: 38 °F

Location of HollabrunnLocation

Historic Weather in Hollabrunn — Graph

°F

Hollabrunn temperature yesterday

Maximum temperature yesterday: 65 °F (at 5:00 PM)
Minimum temperature yesterday: 46 °F (at 6:00 AM)
Average temperature yesterday: 56 °F

Past Weeks' High & Low Weather Summary

 TemperatureHumidityPressure
High76 °F (Apr 16, 2:00 PM)93% (Apr 17, 4:00 PM)30.42 "Hg (Apr 17, 4:00 PM)
Low37 °F (Apr 19, 2:00 AM)23% (Apr 21, 6:00 PM)29.81 "Hg (Apr 16, 5:00 PM)
Average55 °F56%30.12 "Hg
* Reported Apr 10 7:00 AM — Apr 25 7:00 AM, Hollabrunn, Weather by CustomWeather, © 2015

Note: Actual official high and low records may vary slightly from our data, if they occured in-between our weather recording intervals... More about our weather records

Advertising

Hollabrunn weather history for previous 24 hours

 ConditionsComfort  
Time TempWeatherWind HumidityBarometerVisibility
7:00 AM
Sat, Apr 25
48 °FPassing clouds.2 mph64%29.95 "Hg7 mi
6:00 AM47 °FCool.2 mph66%29.94 "HgN/A
5:00 AM49 °FCool.2 mph60%29.95 "HgN/A
4:00 AM49 °FCool.No wind60%29.94 "HgN/A
3:00 AM51 °FCool.2 mph57%29.95 "HgN/A
2:00 AM53 °FCool.2 mph53%29.95 "HgN/A
1:00 AM54 °FCool.3 mph47%29.95 "HgN/A
12:00 AM54 °FCool.3 mph46%29.95 "HgN/A
11:00 PM
Fri, Apr 24
54 °FCool.3 mph49%29.95 "HgN/A
10:00 PM56 °FRefreshingly cool.2 mph51%29.94 "HgN/A
9:00 PM59 °FRefreshingly cool.2 mph45%29.94 "HgN/A
8:00 PM61 °FRefreshingly cool.3 mph42%29.92 "HgN/A
7:00 PM64 °FMild.2 mph41%29.91 "HgN/A
6:00 PM65 °FMild.3 mph39%29.91 "HgN/A
5:00 PM65 °FMild.2 mph42%29.93 "HgN/A
4:00 PM64 °FMild.3 mph46%29.94 "HgN/A
3:00 PM63 °FMild.3 mph49%29.95 "HgN/A
2:00 PM63 °FMild.3 mph50%29.96 "HgN/A
1:00 PM63 °FMild.2 mph50%29.96 "HgN/A
12:00 PM62 °FRefreshingly cool.3 mph55%29.97 "HgN/A
11:00 AM59 °FRefreshingly cool.3 mph59%29.98 "HgN/A
10:00 AM56 °FCool.2 mph64%29.99 "HgN/A
9:00 AM52 °FCool.7 mph71%29.99 "HgN/A
8:00 AM51 °FCool.7 mph73%29.99 "HgN/A
Weather by CustomWeather, © 2015

See weather overviewHow to use our weather pages